Waarnemingen

Advertentie
Mijn weer
Ahaus, Duitsland (10309): temperatuur & dauwpunt: 17.07.2017 08:00:00 - 23.07.2017 08:00:00 (CEST)Ahaus, Duitsland (10309): temperatuur 5cm & temperatuur -5cm: 17.07.2017 08:00:00 - 23.07.2017 08:00:00 (CEST)Ahaus, Duitsland (10309): temperatuur -20cm & temperatuur -100cm: 17.07.2017 08:00:00 - 23.07.2017 08:00:00 (CEST)Ahaus, Duitsland (10309): windsnelheid & windstoten: 17.07.2017 08:00:00 - 23.07.2017 08:00:00 (CEST)Ahaus, Duitsland (10309): windrichting: 17.07.2017 08:00:00 - 23.07.2017 08:00:00 (CEST)Ahaus, Duitsland (10309): luchtdruk: 17.07.2017 08:00:00 - 23.07.2017 08:00:00 (CEST)Ahaus, Duitsland (10309): zicht: 17.07.2017 08:00:00 - 23.07.2017 08:00:00 (CEST)Ahaus, Duitsland (10309): Zonneschijnduur: 17.07.2017 08:00:00 - 23.07.2017 08:00:00 (CEST)Ahaus, Duitsland (10309): neerslag: 17.07.2017 08:00:00 - 23.07.2017 08:00:00 (CEST)
Datum & Tijd tt [°C] td [°C] tt 5cm [°C] tt -5cm [°C] tt -20cm [°C] tt -100cm [°C] ff [km/u] ff [kn] fx [km/u] fx [kn] dd ppp [hPa] vv [km] sd [min] rr [mm]
23.07.2017 08:00:00 15,9 14,3 15,8 18,8 20,6 18,2 15 8 27 14 ZW 1011,9 14 1 0,0
23.07.2017 07:00:00 15,8 14,5 15,3 18,4 20,8 18,2 13 7 19 11 ZW 1011,5 13 0 0,4
23.07.2017 06:00:00 15,8 15,4 15,7 18,5 21,1 18,2 9 5 14 8 ZZW 1010,8 4,4 0 0,0
23.07.2017 05:00:00 15,8 15,4 15,5 18,7 21,4 18,2 5 3 14 8 ZW 1010,6 7 0 0,0
23.07.2017 04:00:00 16,2 15,7 16,3 19,4 21,7 18,2 8 4 12 6 ZZW 1010,8 11 0 1,5
23.07.2017 03:00:00 16,3 15,8 16,3 19,7 22,0 18,2 6 3 17 9 ZZW 1011,0 5 0 4,8
23.07.2017 02:00:00 16,9 16,2 16,7 20,0 22,4 18,2 4 2 36 19 WNW 1011,2 8 0 11,0
23.07.2017 01:00:00 17,7 16,5 17,2 20,5 22,7 18,2 10 6 25 14 W 1012,2 8 0 0,0
23.07.2017 00:00:00 18,5 16,5 17,6 21,3 23,1 18,2 14 7 23 12 W 1012,0 12 0 0,0
22.07.2017 23:00:00 17,8 16,9 16,6 21,8 23,5 18,2 3 2 19 10 N 1011,1 4,8 0 0,1
22.07.2017 22:00:00 17,9 16,9 17,1 22,7 23,9 18,2 4 2 19 10 NO 1011,2 7 0 0,0
22.07.2017 21:00:00 19,3 17,2 18,2 24,2 24,1 18,2 5 3 16 8 W 1011,0 11 7 0,6
22.07.2017 20:00:00 21,1 16,0 19,4 26,7 24,2 18,2 6 3 34 19 O 1010,9 9 14 0,1
22.07.2017 19:00:00 25,3 14,1 24,7 28,4 24,0 18,2 4 2 16 8 WZW 1010,4 38 25 0,0
22.07.2017 18:00:00 26,3 13,7 27,7 29,5 23,7 18,2 6 4 17 9 ZO 1010,7 45 37 0,0
22.07.2017 17:00:00 25,8 14,0 27,2 28,8 23,4 18,2 9 5 18 10 ZO 1010,8 45 23 0,0
22.07.2017 16:00:00 26,2 13,6 28,6 28,2 23,0 18,2 10 5 24 13 ZZO 1011,2 38 15 0,0
22.07.2017 15:00:00 26,0 12,7 27,7 28,4 22,6 18,2 14 7 29 15 ZZO 1011,4 38 20 0,0
22.07.2017 14:00:00 25,1 13,7 27,0 28,7 22,1 18,2 11 6 20 11 ZZW 1011,6 39 21 0,0
22.07.2017 13:00:00 25,9 13,2 29,4 28,7 21,4 18,2 14 7 23 13 ZZO 1011,7 44 53 0,0
22.07.2017 12:00:00 24,5 14,3 26,9 27,0 20,9 18,2 8 5 18 10 Z 1011,6 41 60 0,0
22.07.2017 11:00:00 23,2 15,2 25,2 25,0 20,4 18,1 11 6 23 12 Z 1011,7 22 59 0,0
22.07.2017 10:00:00 21,7 16,2 24,3 23,0 20,1 18,1 13 7 20 11 ZO 1011,4 31 50 0,0
22.07.2017 09:00:00 20,2 16,4 21,4 20,9 20,0 18,1 11 6 18 10 ZO 1011,6 33 40 0,0
22.07.2017 08:00:00 17,8 16,3 17,4 18,6 20,1 18,1 9 5 25 14 OZO 1011,2 20 0 0,0
22.07.2017 07:00:00 17,8 16,0 16,9 18,4 20,2 18,1 16 8 27 14 ZO 1011,2 20 0 0,0
22.07.2017 06:00:00 17,1 15,6 16,3 18,4 20,4 18,1 9 5 24 13 ZO 1010,9 12 0 0,5
22.07.2017 05:00:00 18,7 13,5 18,1 18,6 20,6 18,1 6 4 12 6 OZO 1010,4 28 0 0,0
22.07.2017 04:00:00 18,5 13,2 17,2 18,5 20,8 18,1 6 3 13 7 ONO 1010,4 28 0 0,0
22.07.2017 03:00:00 18,5 12,8 17,2 18,6 21,1 18,1 7 4 16 9 ONO 1010,7 31 0 0,0
22.07.2017 02:00:00 18,6 12,4 17,1 18,7 21,4 18,1 7 4 16 9 O 1011,1 33 0 0,0
22.07.2017 01:00:00 18,4 11,8 16,7 19,0 21,8 18,1 8 4 16 9 O 1011,1 33 0 0,0
22.07.2017 00:00:00 18,1 11,6 16,2 19,4 22,2 18,1 7 4 13 7 ONO 1011,3 35 0 0,0
21.07.2017 23:00:00 18,7 11,7 16,0 20,2 22,6 18,1 7 4 14 8 NO 1011,5 36 0 0,0
21.07.2017 22:00:00 19,7 11,4 15,8 21,4 22,9 18,1 7 4 12 6 NO 1011,9 36 0 0,0
21.07.2017 21:00:00 21,7 11,2 20,9 23,1 23,1 18,1 6 3 10 5 NNO 1011,7 44 52 0,0
21.07.2017 20:00:00 23,4 8,8 24,6 24,6 23,2 18,1 5 3 20 11 O 1011,6 34 60 0,0
21.07.2017 19:00:00 23,8 9,1 25,6 25,8 23,1 18,1 6 3 16 9 O 1012,0 38 60 0,0
21.07.2017 18:00:00 23,4 7,6 26,3 27,0 22,9 18,1 4 2 16 9 O 1012,4 48 60 0,0
21.07.2017 17:00:00 23,5 8,0 26,8 27,4 22,5 18,1 10 5 23 12 ZO 1013,0 30 59 0,0
21.07.2017 16:00:00 22,3 8,3 25,8 28,0 22,1 18,1 9 5 23 12 Z 1013,8 28 60 0,0
21.07.2017 15:00:00 22,2 9,1 25,8 27,8 21,5 18,1 10 6 22 12 Z 1014,3 37 60 0,0
21.07.2017 14:00:00 21,0 7,5 23,8 27,2 20,9 18,1 12 7 22 12 Z 1014,6 28 60 0,0
21.07.2017 13:00:00 20,3 7,4 23,0 26,5 20,3 18,1 10 5 25 13 ZZW 1015,0 38 56 0,0
21.07.2017 12:00:00 19,4 8,7 21,4 24,7 19,7 18,1 13 7 21 11 ZZW 1015,3 58 60 0,0
21.07.2017 11:00:00 18,8 9,5 20,8 22,9 19,3 18,1 9 5 18 10 ZW 1015,3 37 60 0,0
21.07.2017 10:00:00 17,6 10,4 19,5 20,8 19,0 18,1 7 4 14 7 ZZW 1015,3 36 60 0,0
21.07.2017 09:00:00 15,8 10,5 17,0 18,4 18,9 18,0 9 5 15 8 ZW 1015,4 39 60 0,0
21.07.2017 08:00:00 14,3 10,9 13,3 16,6 19,0 18,0 8 5 12 6 ZZW 1015,0 17 59 0,0
21.07.2017 07:00:00 12,1 11,6 11,3 15,3 19,3 18,0 4 2 6 3 ZZO 1014,7 6 3 0,0
21.07.2017 06:00:00 12,6 12,1 10,4 15,5 19,7 18,0 5 3 6 4 Z 1014,4 7 0 0,0
21.07.2017 05:00:00 12,9 12,3 11,5 15,9 20,1 18,0 6 3 9 5 ZZW 1014,2 10 0 0,0
21.07.2017 04:00:00 13,0 12,2 11,3 16,5 20,5 18,0 6 3 10 5 Z 1013,9 14 0 0,0
21.07.2017 03:00:00 13,9 12,5 11,7 17,1 20,8 18,0 6 3 10 6 ZW 1013,8 18 0 0,0
21.07.2017 02:00:00 15,0 12,8 13,4 17,7 21,2 18,0 8 4 13 7 ZW 1013,7 25 0 0,0
21.07.2017 01:00:00 16,5 12,7 14,9 18,5 21,6 18,0 11 6 26 14 W 1013,2 32 0 0,0
21.07.2017 00:00:00 18,1 13,4 17,6 19,5 21,9 18,0 8 5 16 9 W 1012,8 37 0 0,0
20.07.2017 23:00:00 18,4 14,1 17,3 19,9 22,3 17,9 10 6 25 13 W 1012,4 24 0 0,0
20.07.2017 22:00:00 18,6 13,8 17,9 20,3 22,7 17,9 13 7 44 24 W 1011,6 42 0 0,0
20.07.2017 21:00:00 19,9 13,7 19,5 21,7 23,0 17,9 25 13 49 27 W 1010,4 56 0 0,0
20.07.2017 20:00:00 23,6 14,1 23,1 23,2 23,2 17,9 14 8 40 22 WZW 1008,9 48 19 0,0
20.07.2017 19:00:00 24,7 13,5 25,0 24,9 23,2 17,9 14 8 30 16 WZW 1008,1 38 39 0,0
20.07.2017 18:00:00 24,3 12,7 24,2 25,3 23,2 17,9 19 10 34 19 ZW 1008,0 59 27 0,0
20.07.2017 17:00:00 24,6 14,4 24,9 27,1 22,9 17,9 16 9 36 19 ZW 1007,9 56 44 0,0
20.07.2017 16:00:00 24,9 16,7 27,8 27,3 22,5 17,8 16 9 31 17 ZW 1007,6 23 37 0,0
20.07.2017 15:00:00 24,8 18,3 27,9 26,2 22,1 17,8 14 7 29 15 ZW 1007,7 26 26 0,0
20.07.2017 14:00:00 23,8 19,0 26,5 26,0 21,7 17,8 14 7 27 14 ZW 1007,9 19 28 1,0
20.07.2017 13:00:00 22,7 18,2 23,8 24,6 21,4 17,8 16 9 30 16 ZW 1007,9 11 12 0,0
20.07.2017 12:00:00 21,2 18,7 21,9 23,2 21,2 17,8 14 8 22 12 ZZW 1008,1 6 1 0,0
20.07.2017 11:00:00 20,1 18,6 20,8 22,1 21,1 17,7 13 7 19 10 Z 1007,9 5 0 0,2
20.07.2017 10:00:00 18,9 18,2 18,9 20,6 21,2 17,7 5 3 19 10 Z 1008,1 6 0 1,2
20.07.2017 09:00:00 18,1 17,7 18,2 20,0 21,4 17,7 3 2 19 11 ZO 1008,2 6 0 3,6
20.07.2017 08:00:00 18,3 17,4 18,0 20,0 21,6 17,7 14 7 27 15 ZO 1008,7 5 0 3,6
20.07.2017 07:00:00 18,5 17,9 18,4 20,3 21,8 17,7 12 7 22 12 ZZO 1008,2 2,8 0 8,0
20.07.2017 06:00:00 18,8 18,2 18,5 20,5 22,0 17,7 4 2 26 14 NW 1007,9 1,7 0 2,7
20.07.2017 05:00:00 18,7 17,9 18,2 20,7 22,3 17,6 5 3 13 7 Z 1007,0 8 0 0,1
20.07.2017 04:00:00 18,7 17,9 18,5 21,0 22,5 17,6 6 4 11 6 ZZO 1008,1 6 0 0,0
20.07.2017 03:00:00 18,7 18,0 18,3 21,2 22,9 17,6 3 2 13 7 ZO 1008,3 6 0 0,0
20.07.2017 02:00:00 19,5 17,7 18,5 21,5 23,2 17,6 9 5 43 23 WZW 1008,8 18 0 8,3
20.07.2017 01:00:00 18,9 17,4 18,2 22,3 23,5 17,6 8 4 15 8 ZZO 1009,0 1,5 0 0,1
20.07.2017 00:00:00 18,9 16,5 17,9 22,6 23,9 17,6 6 3 9 5 ZZO 1009,2 28 0 0,0
19.07.2017 23:00:00 19,3 16,6 17,4 23,4 24,3 17,6 5 3 9 5 OZO 1008,8 30 0 0,0
19.07.2017 22:00:00 20,0 16,8 18,2 24,5 24,6 17,6 3 2 12 7 ONO 1008,7 25 0 0,0
19.07.2017 21:00:00 21,7 16,7 21,8 25,8 24,8 17,6 9 5 19 10 ZO 1008,6 35 4 0,0
19.07.2017 20:00:00 23,3 16,2 24,1 26,9 25,0 17,6 10 5 19 10 Z 1008,5 33 15 0,0
19.07.2017 19:00:00 22,9 16,2 22,7 27,5 25,2 17,6 10 5 40 21 Z 1009,3 34 0 0,0
19.07.2017 18:00:00 26,8 13,2 26,6 29,6 25,1 17,5 21 11 44 24 Z 1008,5 34 0 0,0
19.07.2017 17:00:00 30,1 17,1 30,4 31,7 24,7 17,5 14 7 27 15 ZW 1008,1 24 5 0,0
19.07.2017 16:00:00 31,4 16,6 32,6 33,6 24,0 17,5 13 7 27 14 Z 1007,8 37 49 0,0
19.07.2017 15:00:00 32,2 17,7 35,5 33,2 23,2 17,5 17 9 27 15 ZO 1008,1 22 60 0,0
19.07.2017 14:00:00 31,3 17,3 34,6 32,2 22,4 17,5 15 8 27 15 ZO 1008,7 22 60 0,0
19.07.2017 13:00:00 29,8 16,8 33,2 30,9 21,5 17,5 18 10 27 15 ZO 1009,4 20 60 0,0
19.07.2017 12:00:00 27,9 16,5 32,0 28,4 20,9 17,5 14 8 25 14 O 1009,8 28 60 0,0
19.07.2017 11:00:00 25,8 15,6 28,3 25,1 20,4 17,5 10 6 24 13 O 1010,4 26 60 0,0
19.07.2017 10:00:00 24,6 15,4 26,7 23,4 20,1 17,5 12 7 23 13 O 1010,8 28 60 0,0
19.07.2017 09:00:00 22,2 14,7 23,2 21,1 19,9 17,5 9 5 22 12 O 1011,3 24 60 0,0
19.07.2017 08:00:00 20,3 14,2 20,6 19,3 20,0 17,5 7 4 16 9 O 1012,0 19 60 0,0
19.07.2017 07:00:00 18,6 13,7 17,7 18,3 20,2 17,5 7 4 14 8 ONO 1012,5 22 34 0,0
19.07.2017 06:00:00 17,0 13,4 15,3 18,1 20,5 17,4 6 3 13 7 ONO 1012,6 21 0 0,0
19.07.2017 05:00:00 16,7 13,3 15,1 18,3 20,8 17,4 8 4 12 6 ONO 1012,9 23 0 0,0
19.07.2017 04:00:00 17,3 13,4 14,6 18,7 21,1 17,4 5 3 13 7 O 1013,5 28 0 0,0
19.07.2017 03:00:00 17,4 13,2 15,8 19,1 21,5 17,4 9 5 12 6 ONO 1014,0 29 0 0,0
19.07.2017 02:00:00 18,3 13,2 16,2 19,6 21,8 17,4 8 4 16 8 ONO 1014,7 31 0 0,0
19.07.2017 01:00:00 18,4 13,1 16,4 20,2 22,3 17,4 8 5 16 9 ONO 1015,1 32 0 0,0
19.07.2017 00:00:00 19,3 13,2 16,9 21,0 22,7 17,4 9 5 16 9 ONO 1015,6 35 0 0,0
18.07.2017 23:00:00 19,9 13,2 17,7 22,0 23,1 17,4 9 5 19 10 ONO 1015,8 36 0 0,0
18.07.2017 22:00:00 21,3 13,4 19,1 23,4 23,4 17,4 10 6 19 11 NO 1016,0 37 4 0,0
18.07.2017 21:00:00 23,2 13,1 22,9 25,1 23,5 17,4 10 6 19 10 NO 1016,3 43 14 0,0
18.07.2017 20:00:00 24,1 12,7 23,9 26,7 23,6 17,4 12 6 23 12 NO 1016,6 46 7 0,0
18.07.2017 19:00:00 24,9 12,4 26,0 28,0 23,4 17,4 15 8 28 15 ONO 1016,7 48 26 0,0
18.07.2017 18:00:00 25,7 12,1 29,7 30,1 23,0 17,4 16 9 29 15 NO 1017,2 34 52 0,0
18.07.2017 17:00:00 25,1 12,7 28,4 30,6 22,4 17,4 14 8 28 15 ONO 1017,8 49 48 0,0
18.07.2017 16:00:00 25,2 11,9 31,2 30,9 21,7 17,4 14 8 27 14 NO 1018,4 33 60 0,0
18.07.2017 15:00:00 25,1 13,0 31,0 30,2 20,9 17,4 12 7 28 15 ONO 1019,1 26 60 0,0
18.07.2017 14:00:00 24,0 11,6 28,5 28,7 20,1 17,4 14 7 25 14 O 1019,7 32 60 0,0
18.07.2017 13:00:00 23,1 11,0 26,8 26,3 19,4 17,4 13 7 24 13 O 1020,5 38 60 0,0
18.07.2017 12:00:00 22,5 11,2 25,3 24,1 18,8 17,4 12 7 25 13 OZO 1021,0 34 60 0,0
18.07.2017 11:00:00 21,2 12,8 24,7 21,9 18,3 17,4 10 6 19 10 ONO 1021,4 37 60 0,0
18.07.2017 10:00:00 18,8 12,0 21,2 19,9 18,1 17,4 11 6 19 10 ONO 1021,8 21 56 0,0
18.07.2017 09:00:00 16,9 12,2 18,0 17,7 18,0 17,4 10 6 16 9 ONO 1022,0 30 7 0,0
18.07.2017 08:00:00 15,6 11,4 17,0 16,5 18,1 17,4 11 6 18 10 ONO 1022,1 22 60 0,0
18.07.2017 07:00:00 13,6 11,0 12,3 15,0 18,3 17,4 8 4 14 7 NO 1022,3 24 39 0,0
18.07.2017 06:00:00 12,6 10,7 10,8 14,9 18,6 17,4 8 4 12 7 NO 1022,2 20 0 0,0
18.07.2017 05:00:00 12,9 10,9 10,8 15,2 19,0 17,4 7 4 11 6 NO 1022,4 24 0 0,0
18.07.2017 04:00:00 13,0 11,0 10,1 15,7 19,4 17,4 6 3 10 6 NO 1022,6 25 0 0,0
18.07.2017 03:00:00 13,6 11,4 11,2 16,2 19,8 17,4 6 3 13 7 NO 1022,8 27 0 0,0
18.07.2017 02:00:00 14,5 11,8 12,0 16,8 20,2 17,4 8 4 15 8 NO 1022,9 29 0 0,0
18.07.2017 01:00:00 15,3 12,0 13,1 17,4 20,6 17,4 9 5 17 9 NNO 1022,9 34 0 0,0
18.07.2017 00:00:00 15,6 12,0 12,3 18,2 21,0 17,4 8 5 10 5 N 1022,8 42 0 0,0
17.07.2017 23:00:00 15,7 12,6 12,0 19,2 21,5 17,4 6 3 8 4 N 1022,6 47 0 0,0
17.07.2017 22:00:00 17,6 12,6 13,4 20,5 21,8 17,4 6 3 10 5 N 1022,5 53 13 0,0
17.07.2017 21:00:00 20,3 11,5 18,9 22,0 22,1 17,4 7 4 13 7 N 1022,2 55 57 0,0
17.07.2017 20:00:00 21,7 11,1 23,4 23,6 22,2 17,4 9 5 16 9 NNO 1022,1 53 60 0,0
17.07.2017 19:00:00 22,3 10,3 23,7 24,9 22,1 17,4 8 5 19 10 NNW 1022,1 49 60 0,0
17.07.2017 18:00:00 22,6 9,6 25,2 25,8 22,0 17,4 9 5 17 9 N 1022,3 41 60 0,0
17.07.2017 17:00:00 22,1 9,4 26,7 26,3 21,7 17,4 8 5 22 12 N 1022,7 38 60 0,0
17.07.2017 16:00:00 22,2 9,1 25,6 27,3 21,2 17,4 9 5 19 11 NNW 1022,7 57 60 0,0
17.07.2017 15:00:00 21,3 9,0 27,0 27,2 20,7 17,4 9 5 20 11 NO 1022,9 37 60 0,0
17.07.2017 14:00:00 20,8 8,8 26,0 26,5 20,2 17,4 13 7 20 11 N 1023,2 27 60 0,0
17.07.2017 13:00:00 19,9 9,5 24,1 25,5 19,6 17,4 11 6 21 11 NNO 1023,1 37 60 0,0
17.07.2017 12:00:00 19,5 10,5 22,6 24,2 19,1 17,4 10 5 21 11 N 1023,2 52 60 0,0
17.07.2017 11:00:00 19,1 11,4 22,4 22,6 18,6 17,4 11 6 19 10 NO 1023,4 37 59 0,0
17.07.2017 10:00:00 17,5 11,7 20,9 20,9 18,4 17,4 10 6 21 11 NNO 1023,5 36 54 0,0
17.07.2017 09:00:00 15,8 12,6 16,3 18,8 18,3 17,4 12 6 19 10 N 1023,3 39 55 0,0
17.07.2017 08:00:00 15,6 13,0 15,7 17,8 18,4 17,4 10 5 17 9 N 1022,9 34 46 0,0

tt = temperatuur
td = dauwpunt
tt 5cm = temperatuur 5cm
tt -5cm = temperatuur -5cm
tt -20cm = temperatuur -20cm
tt -100cm = temperatuur -100cm
ff = windsnelheid
fx = windstoten
dd = windrichting
ppp = luchtdruk
vv = zicht
sd = Zonneschijnduur
rr = neerslag

Weerstations in de omgeving